TimeCDT,TemperatureF,Dew PointF,Humidity,Sea Level PressureIn,VisibilityMPH,Wind Direction,Wind SpeedMPH,Gust SpeedMPH,PrecipitationIn,Events,Conditions,WindDirDegrees,DateUTC
12:53 AM,51.1,48.0,89,29.95,10.0,Calm,Calm,-,N/A,,Clear,0,2013-09-23 05:53:00
1:53 AM,50.0,48.0,93,29.95,10.0,Calm,Calm,-,N/A,,Clear,0,2013-09-23 06:53:00
2:53 AM,52.0,48.0,86,29.94,10.0,Calm,Calm,-,N/A,,Clear,0,2013-09-23 07:53:00
3:53 AM,50.0,46.9,89,29.94,10.0,Calm,Calm,-,0.01,,Clear,0,2013-09-23 08:53:00
4:53 AM,48.9,46.0,90,29.95,10.0,Calm,Calm,-,N/A,,Clear,0,2013-09-23 09:53:00
5:53 AM,48.0,46.0,93,29.96,10.0,Calm,Calm,-,N/A,,Clear,0,2013-09-23 10:53:00
6:53 AM,46.9,45.0,93,29.98,10.0,Calm,Calm,-,N/A,,Clear,0,2013-09-23 11:53:00
7:53 AM,52.0,50.0,93,29.99,10.0,Calm,Calm,-,N/A,,Clear,0,2013-09-23 12:53:00
8:53 AM,57.9,52.0,81,29.99,10.0,SE,4.6,-,N/A,,Clear,130,2013-09-23 13:53:00
9:53 AM,63.0,52.0,67,29.99,10.0,SE,8.1,-,N/A,,Clear,140,2013-09-23 14:53:00
10:53 AM,66.9,52.0,59,29.99,10.0,ESE,9.2,-,N/A,,Clear,120,2013-09-23 15:53:00
11:53 AM,69.1,53.1,57,29.97,10.0,ESE,8.1,-,N/A,,Clear,120,2013-09-23 16:53:00
12:53 PM,72.0,52.0,49,29.95,10.0,SSE,8.1,-,N/A,,Clear,150,2013-09-23 17:53:00
1:53 PM,73.9,50.0,43,29.93,10.0,SE,6.9,-,N/A,,Clear,130,2013-09-23 18:53:00
2:53 PM,75.0,52.0,44,29.91,10.0,ESE,8.1,-,N/A,,Clear,120,2013-09-23 19:53:00
3:53 PM,75.9,51.1,42,29.90,10.0,East,8.1,-,N/A,,Clear,100,2013-09-23 20:53:00
4:53 PM,75.0,51.1,43,29.90,10.0,ESE,9.2,-,N/A,,Clear,120,2013-09-23 21:53:00
5:53 PM,73.9,52.0,46,29.90,10.0,ESE,8.1,-,N/A,,Clear,120,2013-09-23 22:53:00
6:53 PM,70.0,53.1,55,29.90,10.0,SE,6.9,-,N/A,,Clear,130,2013-09-23 23:53:00
7:53 PM,66.9,53.1,61,29.90,10.0,ESE,5.8,-,N/A,,Clear,120,2013-09-24 00:53:00
8:53 PM,62.1,53.1,72,29.92,10.0,Calm,Calm,-,N/A,,Clear,0,2013-09-24 01:53:00
9:53 PM,62.1,53.1,72,29.93,10.0,Calm,Calm,-,N/A,,Clear,0,2013-09-24 02:53:00
10:53 PM,55.9,53.1,90,29.93,10.0,Calm,Calm,-,N/A,,Clear,0,2013-09-24 03:53:00
11:53 PM,54.0,52.0,93,29.94,10.0,Calm,Calm,-,N/A,,Clear,0,2013-09-24 04:53:00